Regional Weather Roundup
Issued by NWS Newport/Morehead, NC

Current Version | Previous Version | Text Only | Print | Product List | Glossary Off
Versions: 1 2 3 4 5 6 7 8 9 10 11 12 13 14 15 16 17 18 19 20 21 22 23 24 25 26 27 28 29 30 31 32 33 34 35 36 37 38 39 40 41 42 43 44 45 46 47 48 49 50
000 ASUS42 KMHX 190810 RWRMHX WEATHER ROUNDUP FOR EASTERN NORTH CAROLINA NATIONAL WEATHER SERVICE NEWPORT/MOREHEAD CITY NC 400 AM EDT FRI SEP 19 2014 NOTE: "FAIR" INDICATES FEW OR NO CLOUDS BELOW 12,000 FEET WITH NO SIGNIFICANT WEATHER AND/OR OBSTRUCTIONS TO VISIBILITY NCZ015>017-031-032-045>047-102-103-190900- NORTH COAST CITY SKY/WX TMP DP RH WIND PRES REMARKS EDENTON CLEAR 59 58 96 CALM 30.09S ELIZABETH CITY CLEAR 61 58 90 NW5 30.10R KITTY HAWK SUNNY 70 57 61 E6 30.07S MANTEO CLEAR 69 57 64 NE8 30.08S $$ NCZ045>047-081-094-103-104-190900- CENTRAL COAST CITY SKY/WX TMP DP RH WIND PRES REMARKS FRISCO PTCLDY 68 62 81 NE6 30.06F SWANQUARTER N/A 63 N/A N/A N1 30.03S $$ NCZ095-097-098-100-101-190900- SOUTHERN COAST CITY SKY/WX TMP DP RH WIND PRES REMARKS BEAUFORT MOCLDY 68 62 81 NE6 30.06S CEDAR ISLAND N/A 73 N/A N/A NE12 30.09S JACKSONVILLE MOCLDY 64 60 87 N3 30.05F NEWPORT NOT AVBL PINEY ISLAND PTSUNNY 75 62 64 NE10 30.06S WILMINGTON MOCLDY 66 62 87 NE8 30.04R $$ NCZ011>013-027>030-043-044-078>080-089-090>093-098-190900- COASTAL PLAIN CITY SKY/WX TMP DP RH WIND PRES REMARKS AHOSKIE CLEAR 58 56 94 CALM 30.10S CLINTON CLOUDY 64 62 91 CALM 30.08R ELIZABETHTOWN MOCLDY 64 60 86 CALM 30.06R GOLDSBORO MOCLDY 62 61 98 CALM 30.06S GREENVILLE PTCLDY 59 59 100 CALM 30.10S HAVELOCK MOCLDY 65 61 87 NE7 30.07F KENANSVILLE CLOUDY 61 61 100 CALM 30.08R KINSTON MOCLDY 61 60 94 N3 30.08F NEW BERN MOCLDY 67 60 78 NE7 30.08S RICHLANDS MOCLDY 63 57 82 NE8 30.06S ROANOKE RAPIDS NOT AVBL ROCKY MOUNT MOCLDY 60 57 89 CALM 30.09S WASHINGTON PTCLDY 58 56 92 CALM 30.09S WHITEVILLE PTCLDY 65 61 86 NE5 30.04R $$ AMZ130-135-150-152-154-156-158-170-250-252-270-ANZ085-086-088-633-658-670-190900- MARINE OBSERVATIONS STATION/POSITION TIME TEMP WIND PRES WAVE SWELL AIR SEA DIR/SP/G HT/PER HT/PER (UTC) (F) (DEG/KT/KT) (MB) (FT/S) (FT/S) CHESAPEAKE LIGHT 0700 71 100/ 9/ 10 1019.9 BUOY 44014 0800 73 76 60/ 10/ 14 1018.6 3/10 3/10 DUCK 0800 72 75 70/ 11/ 13 1018.1 2E DUCK 0800 N/A 3/11 2/11 OREGON INLET 0800 71 73 50/ 10/ 13 1018.3 BUOY 44095 0800 76 N/A 4/ 8 2/13 20E OREGON INLET NOT AVBL HATTERAS CG 0800 72 75 40/ 8/ 13 1018.3 DIAMOND BUOY 0800 74 30/ 16/ 23 1016.9 5/ 6 3/ 8 CAPE LOOKOUT 0700 75 60/ 15/ 16 1017.3 BEAUFORT LAB 0800 69 78 30/ 5/ 8 1017.1 30 SE NEW RIVER 0800 78 83 70/ 14/ 16 1017.0 4/10 2/10 5 SE WRIGHTSVILL 0700 75 81 70/ 14/ 16 N/A BUOY 41002 0717 78 82 60/ 14/ 16 1015.3 3/10 2/10 BUOY 41004 0800 80 83 70/ 8/ 10 1014.5 3/ 7 3/ 7 $$

USA.gov is the U.S. government's official web portal to all federal, state and local government web resources and services.